Back to catalog

SL-16 DEB

AliveLEO
NORAD 22366·DEBRIS·🇷🇺 Russia

Launched Dec 25, 1992 from Baikonur Cosmodrome

Loading…

Next Passes (next 24 hours)

TLE

FreshSource: Space-Track

Epoch: Sep 14, 2026, 10:35 UTC

1 22366U 92093BF  26257.44158744  .00010631  00000-0  14398-2 0  9999
2 22366  71.1012 166.5260 0051828 164.0968 310.2276 14.78182785737332

Track SL-16 DEB in real time with AllMySat

Download on the App Store